Find Kosmos-1461

NORAD ID: 14064 Int'l Des: 1983-044 Owner: VMF Country: SU operational
LEOCIRCULAR

Current View

Loading 3D Globe...

About Kosmos-1461

Description loading...

Upcoming Passes

Passes for default location (London). Set your location on the main map for personalized predictions.

Altitude History

Loading altitude history...

Two-Line Element Set

1 14064U 83044A 26150.11953602 .00029915 00000-0 76142-3 0 9994
2 14064 64.9860 110.8595 0040537 204.3005 155.6223 15.38620432214366
Epoch: May 30, 2026 • Age: 9 hours

Current Status

Altitude 474.6 km
Velocity 7.62 km/s
Sub-Earth Point -36.98°S, 20.4°E
Launch Date May 7, 1983
Age 43 years
Type other

Technical Details

Classification Payload
Mass 3300.00 kg
Dry Mass 3000.00 kg
Total Mass 3300.00 kg
Length 10.00 m
Diameter 1.30 m
Span 17.00 m
Shape Cyl + 2 Pan
Manufacturer TSSKB/KOMET
Bus Type US-P
Phase Status Exploded
Owner/State VMF/SU

Most Searched